Indianapolis, IN

1:54 PM EDT on September 15, 2019 (GMT -0400)
Indianapolis Terry

Weather History for KTYQ - May, 2019

Change the Weather History Date:

Friday, May 31, 2019

  Actual Average (KEYE) Record (KEYE)
Temperature  
Mean Temperature 66 °F -  
Max Temperature 75 °F 70 °F 90 °F (2011)
Min Temperature 57 °F 54 °F 45 °F (2003)
Cooling Degree Days 1    
Growing Degree Days 16 (Base 50)    
Moisture  
Dew Point 61 °F    
Average Humidity 86    
Maximum Humidity 100    
Minimum Humidity 57    
Precipitation  
Precipitation 0.01 in - - ()
Sea Level Pressure  
Sea Level Pressure 29.90 in    
Wind  
Wind Speed 3 mph ()    
Max Wind Speed 9 mph    
Max Gust Speed -    
Visibility 9.6 miles    
Events Thunderstorm    
Averages and records for this station are not official NWS values.
T = Trace of Precipitation, MM = Missing Value Source: Averaged Metar Reports

Daily Weather History Graph

Daily Weather History Graph

Search for Another Location

Airport or City:

Astronomy

May. 31, 2019 Rise Set
Actual Time 6:18 AM EDT 9:07 PM EDT
Civil Twilight 5:46 AM EDT 9:39 PM EDT
Nautical Twilight 5:06 AM EDT 10:19 PM EDT
Astronomical Twilight 4:20 AM EDT 11:05 PM EDT
Moon 4:52 AM EDT (5/31) 6:15 PM EDT (5/31)
Length of Visible Light 15h 52m
Length of Day
14h 48m
Waning Crescent, 9% of the Moon is Illuminated
May 31
Waning Crescent
Jun 3
New
Jun 10
First Quarter
Jun 17
Full
Jun 25
Last Quarter

Hourly Weather History & Observations

Time (EDT) Temp. Dew Point Humidity Pressure Visibility Wind Dir Wind Speed Gust Speed Precip Events Conditions
12:15 AM 59.9 °F 59.9 °F 100% 29.85 in 10.0 mi South 6.9 mph - N/A   Mostly Cloudy
12:35 AM 59.9 °F 59.9 °F 100% 29.85 in 10.0 mi SW 8.1 mph - N/A   Scattered Clouds
12:55 AM 59.7 °F 59.7 °F 100% 29.86 in 10.0 mi SSW 6.9 mph - N/A   Clear
1:15 AM 59.0 °F 59.0 °F 100% 29.86 in 10.0 mi WSW 4.6 mph - N/A   Clear
1:35 AM 59.2 °F 59.2 °F 100% 29.86 in 10.0 mi Calm Calm - N/A   Mostly Cloudy
1:55 AM 59.4 °F 59.4 °F 100% 29.86 in 10.0 mi Calm Calm - N/A   Overcast
2:15 AM 59.5 °F 59.5 °F 100% 29.86 in 10.0 mi Calm Calm - N/A   Mostly Cloudy
2:35 AM 59.0 °F 59.0 °F 100% 29.86 in 10.0 mi WNW 6.9 mph - 0.01 in   Clear
2:55 AM 59.2 °F 59.2 °F 100% 29.86 in 10.0 mi NW 8.1 mph - 0.01 in   Scattered Clouds
3:15 AM 59.4 °F 59.4 °F 100% 29.86 in 10.0 mi WNW 6.9 mph - N/A   Scattered Clouds
3:35 AM 59.0 °F 59.0 °F 100% 29.85 in 10.0 mi Calm Calm - N/A   Clear
3:55 AM 58.3 °F 58.3 °F 100% 29.85 in 10.0 mi West 3.5 mph - N/A Thunderstorm Clear
4:15 AM 58.5 °F 58.5 °F 100% 29.85 in 10.0 mi Calm Calm - N/A   Scattered Clouds
4:35 AM 58.5 °F 58.5 °F 100% 29.84 in 10.0 mi Calm Calm - N/A   Scattered Clouds
4:55 AM 58.6 °F 58.6 °F 100% 29.85 in 10.0 mi SE 3.5 mph - N/A   Mostly Cloudy
5:15 AM 58.3 °F 58.3 °F 100% 29.86 in 10.0 mi SSE 3.5 mph - N/A   Overcast
5:35 AM 58.3 °F 58.3 °F 100% 29.86 in 10.0 mi Calm Calm - N/A   Overcast
5:55 AM 58.3 °F 58.3 °F 100% 29.86 in 10.0 mi WSW 3.5 mph - N/A   Overcast
6:15 AM 57.9 °F 57.9 °F 100% 29.87 in 10.0 mi Calm Calm - N/A   Overcast
6:35 AM 57.4 °F 57.4 °F 100% 29.88 in 7.0 mi Calm Calm - N/A   Overcast
6:55 AM 58.1 °F 58.1 °F 100% 29.88 in 5.0 mi Calm Calm - N/A   Mostly Cloudy
7:15 AM 57.4 °F 57.4 °F 100% 29.89 in 5.0 mi Calm Calm - N/A   Mostly Cloudy
7:35 AM 57.7 °F 57.7 °F 100% 29.89 in 5.0 mi Calm Calm - N/A   Scattered Clouds
7:55 AM 59.0 °F 59.0 °F 100% 29.89 in 3.0 mi Calm Calm - N/A   Clear
8:15 AM 60.1 °F 60.1 °F 100% 29.89 in 7.0 mi Calm Calm - N/A   Clear
8:35 AM 61.7 °F 61.7 °F 100% 29.89 in 10.0 mi Calm Calm - N/A   Clear
8:55 AM 63.5 °F 62.2 °F 96% 29.90 in 10.0 mi Calm Calm - N/A   Clear
9:15 AM 62.6 °F 62.4 °F 99% 29.91 in 10.0 mi NNW 4.6 mph - N/A   Clear
9:35 AM 62.4 °F 62.4 °F 100% 29.91 in 10.0 mi NW 4.6 mph - N/A   Clear
9:55 AM 63.0 °F 62.8 °F 99% 29.92 in 10.0 mi NW 4.6 mph - N/A   Scattered Clouds
10:15 AM 63.5 °F 63.0 °F 98% 29.92 in 10.0 mi NW 4.6 mph - N/A   Mostly Cloudy
10:35 AM 64.4 °F 63.1 °F 96% 29.92 in 10.0 mi Calm Calm - N/A   Mostly Cloudy
10:55 AM 64.9 °F 63.1 °F 94% 29.93 in 10.0 mi NE 3.5 mph - N/A   Mostly Cloudy
11:15 AM 67.1 °F 63.3 °F 88% 29.94 in 10.0 mi North 3.5 mph - N/A   Scattered Clouds
11:35 AM 67.6 °F 60.8 °F 79% 29.94 in 10.0 mi Calm Calm - N/A   Mostly Cloudy
11:55 AM 69.3 °F 61.5 °F 76% 29.94 in 10.0 mi East 3.5 mph - N/A   Mostly Cloudy
12:15 PM 69.8 °F 63.1 °F 79% 29.94 in 10.0 mi Calm Calm - N/A   Scattered Clouds
12:35 PM 69.6 °F 61.7 °F 76% 29.94 in 10.0 mi Calm Calm - N/A   Clear
12:55 PM 70.9 °F 62.2 °F 74% 29.94 in 10.0 mi Calm Calm - N/A   Clear
1:15 PM 71.6 °F 62.2 °F 72% 29.93 in 10.0 mi Calm Calm - N/A   Clear
1:35 PM 72.0 °F 63.1 °F 74% 29.93 in 10.0 mi WNW 5.8 mph - N/A   Clear
1:55 PM 72.5 °F 60.4 °F 66% 29.93 in 10.0 mi NW 3.5 mph - N/A   Clear
2:15 PM 72.7 °F 60.4 °F 65% 29.92 in 10.0 mi Calm Calm - N/A   Clear
2:35 PM 72.7 °F 60.8 °F 66% 29.91 in 10.0 mi Calm Calm - N/A   Clear
2:55 PM 73.8 °F 62.2 °F 67% 29.91 in 10.0 mi West 3.5 mph - N/A   Scattered Clouds
3:15 PM 74.3 °F 62.2 °F 66% 29.91 in 10.0 mi West 3.5 mph - N/A   Scattered Clouds
3:35 PM 74.7 °F 61.9 °F 64% 29.91 in 10.0 mi NW 9.2 mph - N/A   Scattered Clouds
3:55 PM 75.0 °F 62.1 °F 64% 29.91 in 10.0 mi NNW 6.9 mph - N/A   Scattered Clouds
4:15 PM 74.8 °F 62.1 °F 64% 29.90 in 10.0 mi WNW 3.5 mph - N/A   Scattered Clouds
4:35 PM 75.6 °F 62.4 °F 64% 29.90 in 10.0 mi NW 5.8 mph - N/A   Scattered Clouds
4:55 PM 75.0 °F 59.7 °F 59% 29.90 in 10.0 mi West 8.1 mph - N/A   Clear
5:15 PM 75.6 °F 60.3 °F 59% 29.90 in 10.0 mi WNW 4.6 mph - N/A   Clear
5:35 PM 75.2 °F 59.2 °F 57% 29.90 in 10.0 mi WNW 5.8 mph - N/A   Clear
5:55 PM 74.8 °F 60.6 °F 61% 29.90 in 10.0 mi WNW 5.8 mph - N/A   Clear
6:15 PM 75.2 °F 59.9 °F 59% 29.90 in 10.0 mi WNW 4.6 mph - N/A   Scattered Clouds
6:35 PM 75.2 °F 60.1 °F 59% 29.90 in 10.0 mi WNW 5.8 mph - N/A   Clear
6:55 PM 74.3 °F 60.3 °F 61% 29.90 in 10.0 mi West 8.1 mph - N/A   Clear
7:15 PM 73.9 °F 60.3 °F 62% 29.90 in 10.0 mi West 4.6 mph - N/A   Clear
7:35 PM 73.6 °F 59.7 °F 62% 29.89 in 10.0 mi Calm Calm - N/A   Clear
7:55 PM 72.7 °F 61.0 °F 67% 29.89 in 10.0 mi West 3.5 mph - N/A   Clear
8:20 PM 71.4 °F 63.1 °F 75% 29.89 in 10.0 mi Calm Calm - N/A   Clear
8:35 PM 70.5 °F 62.4 °F 75% 29.90 in 10.0 mi WSW 3.5 mph - N/A   Clear
8:55 PM 69.1 °F 64.2 °F 84% 29.90 in 10.0 mi Calm Calm - N/A   Clear
9:15 PM 67.5 °F 65.3 °F 93% 29.90 in 10.0 mi SW 3.5 mph - N/A   Clear
9:35 PM 66.4 °F 65.5 °F 97% 29.90 in 10.0 mi Calm Calm - N/A   Clear
9:55 PM 65.3 °F 65.3 °F 100% 29.91 in 10.0 mi Calm Calm - N/A   Clear
10:15 PM 64.8 °F 64.2 °F 98% 29.91 in 10.0 mi Calm Calm - N/A   Clear
10:35 PM 63.5 °F 63.3 °F 99% 29.91 in 10.0 mi West 3.5 mph - N/A   Clear
10:55 PM 63.5 °F 63.3 °F 99% 29.92 in 10.0 mi WSW 4.6 mph - N/A   Clear
11:15 PM 62.8 °F 62.1 °F 97% 29.92 in 10.0 mi Calm Calm - N/A   Clear
11:35 PM 62.8 °F 62.6 °F 99% 29.92 in 10.0 mi WSW 3.5 mph - N/A   Clear
11:55 PM 62.8 °F 61.9 °F 97% 29.91 in 10.0 mi SW 3.5 mph - N/A   Clear